SVA1428 OEJN-OEMA

Flight info

Callsign SVA1428
Flight time N/A
Altitude 33000
Route DATAP2W/34C DATAP A424 DEGVU
Aircraft A320/M-SDE2E3FGHIRWY/L

Departure

Time N/A
Airport King Abdulaziz International Airport (OEJN)

Arrival

Time 2026-04-29 23:26
Airport Prince Mohammad Bin Abdulaziz Airport (OEMA)
Time Latitude Longitude Altitude Speed Heading
2026-04-29 23:03 23.56261 39.65378 24757 ft 466 kts 357°
2026-04-29 23:03 23.59477 39.65545 24353 ft 461 kts 356°
2026-04-29 23:04 23.62665 39.65711 23948 ft 456 kts 357°
2026-04-29 23:04 23.65810 39.65877 23354 ft 449 kts 357°
2026-04-29 23:04 23.68914 39.66069 22714 ft 446 kts
2026-04-29 23:04 23.71970 39.66646 22098 ft 447 kts
2026-04-29 23:05 23.74919 39.67717 21488 ft 447 kts 16°
2026-04-29 23:05 23.77792 39.68960 20878 ft 442 kts 16°
2026-04-29 23:05 23.80637 39.70188 20276 ft 437 kts 16°
2026-04-29 23:05 23.83454 39.71401 19684 ft 432 kts 16°
2026-04-29 23:06 23.86233 39.72591 19094 ft 427 kts 15°
2026-04-29 23:06 23.88979 39.73768 18507 ft 422 kts 15°
2026-04-29 23:06 23.91698 39.74935 17920 ft 418 kts 16°
2026-04-29 23:06 23.94388 39.76092 17351 ft 413 kts 16°
2026-04-29 23:07 23.97056 39.77239 16758 ft 410 kts 16°
2026-04-29 23:07 23.99697 39.78373 16145 ft 408 kts 17°
2026-04-29 23:07 24.02336 39.79505 15534 ft 406 kts 17°
2026-04-29 23:07 24.04919 39.80622 15357 ft 393 kts 18°
2026-04-29 23:08 24.07417 39.81705 15229 ft 379 kts 18°
2026-04-29 23:08 24.09828 39.82748 15096 ft 367 kts 18°
2026-04-29 23:08 24.12158 39.83758 14972 ft 355 kts 18°
2026-04-29 23:08 24.14417 39.84733 14837 ft 344 kts 17°
2026-04-29 23:09 24.16613 39.85677 14709 ft 334 kts 17°
2026-04-29 23:09 24.18747 39.86597 14585 ft 325 kts 17°
2026-04-29 23:09 24.20820 39.87486 14457 ft 316 kts 15°
2026-04-29 23:09 24.22897 39.88073 14330 ft 302 kts
2026-04-29 23:10 24.24949 39.88223 14172 ft 286 kts 353°
2026-04-29 23:10 24.26852 39.87996 13900 ft 267 kts 344°
2026-04-29 23:10 24.28631 39.87601 13383 ft 263 kts 344°
2026-04-29 23:10 24.30417 39.87211 12796 ft 262 kts 345°
2026-04-29 23:11 24.32213 39.86826 12290 ft 265 kts 346°
2026-04-29 23:11 24.34024 39.86452 11943 ft 265 kts 346°
2026-04-29 23:11 24.35834 39.86085 11613 ft 265 kts 347°
2026-04-29 23:11 24.37646 39.85715 11313 ft 264 kts 347°
2026-04-29 23:12 24.39443 39.85347 11021 ft 262 kts 347°
2026-04-29 23:12 24.41225 39.84981 10723 ft 260 kts 347°
2026-04-29 23:12 24.43000 39.84614 10429 ft 258 kts 347°
2026-04-29 23:12 24.44763 39.84246 10120 ft 257 kts 347°
2026-04-29 23:13 24.46510 39.83880 9822 ft 255 kts 347°
2026-04-29 23:13 24.48251 39.83512 9522 ft 254 kts 347°
2026-04-29 23:13 24.49976 39.83143 9229 ft 252 kts 347°
2026-04-29 23:13 24.51694 39.82774 8940 ft 251 kts 348°
2026-04-29 23:14 24.53403 39.82403 8646 ft 250 kts 347°
2026-04-29 23:14 24.55101 39.82034 8368 ft 248 kts 348°
2026-04-29 23:14 24.56789 39.81667 8087 ft 246 kts 348°
2026-04-29 23:14 24.58460 39.81304 7998 ft 245 kts 347°
2026-04-29 23:15 24.60134 39.80929 8008 ft 246 kts 347°
2026-04-29 23:15 24.61815 39.80552 8008 ft 246 kts 347°
2026-04-29 23:15 24.63494 39.80183 8005 ft 246 kts 348°
2026-04-29 23:15 24.65176 39.79822 8004 ft 247 kts 348°
2026-04-29 23:16 24.66862 39.79462 8006 ft 246 kts 348°
2026-04-29 23:16 24.68544 39.79104 8005 ft 247 kts 348°
2026-04-29 23:16 24.70231 39.78747 7870 ft 246 kts 348°
2026-04-29 23:16 24.71909 39.78406 7567 ft 245 kts 348°
2026-04-29 23:17 24.73583 39.78068 7281 ft 244 kts 349°
2026-04-29 23:17 24.75244 39.77729 6978 ft 242 kts 348°
2026-04-29 23:17 24.76900 39.77387 6696 ft 241 kts 348°
2026-04-29 23:17 24.78545 39.77043 6399 ft 240 kts 348°
2026-04-29 23:18 24.80164 39.76702 6129 ft 239 kts 349°
2026-04-29 23:18 24.81788 39.76356 6007 ft 238 kts 348°
2026-04-29 23:18 24.83410 39.75979 6010 ft 238 kts 343°
2026-04-29 23:18 24.84787 39.75016 6010 ft 228 kts 307°
2026-04-29 23:19 24.85404 39.73511 6008 ft 218 kts 276°
2026-04-29 23:19 24.85231 39.71890 6011 ft 214 kts 246°
2026-04-29 23:19 24.84436 39.70520 6016 ft 213 kts 234°
2026-04-29 23:19 24.83562 39.69205 6014 ft 212 kts 234°
2026-04-29 23:20 24.82692 39.67891 6006 ft 212 kts 234°
2026-04-29 23:20 24.81753 39.66646 6002 ft 212 kts 219°
2026-04-29 23:20 24.80464 39.65891 6005 ft 212 kts 194°
2026-04-29 23:20 24.78997 39.65790 6001 ft 213 kts 171°
2026-04-29 23:21 24.77545 39.66105 5975 ft 214 kts 169°
2026-04-29 23:21 24.76103 39.66407 5779 ft 206 kts 170°
2026-04-29 23:21 24.74716 39.66698 5515 ft 200 kts 170°
2026-04-29 23:21 24.73366 39.66985 5252 ft 196 kts 169°
2026-04-29 23:22 24.72044 39.67267 4996 ft 191 kts 169°
2026-04-29 23:22 24.70751 39.67542 4750 ft 188 kts 169°
2026-04-29 23:22 24.69480 39.67813 4507 ft 183 kts 170°
2026-04-29 23:22 24.68258 39.68073 4256 ft 174 kts 170°
2026-04-29 23:23 24.67123 39.68316 4041 ft 159 kts 171°
2026-04-29 23:23 24.66059 39.68544 3832 ft 153 kts 171°
2026-04-29 23:23 24.65021 39.68767 3632 ft 151 kts 171°
2026-04-29 23:23 24.63995 39.68987 3432 ft 150 kts 171°
2026-04-29 23:24 24.62975 39.69205 3211 ft 149 kts 172°
2026-04-29 23:24 24.61956 39.69422 2978 ft 148 kts 171°
2026-04-29 23:24 24.60946 39.69640 2783 ft 148 kts 170°
2026-04-29 23:24 24.59938 39.69848 2585 ft 147 kts 170°
2026-04-29 23:25 24.58935 39.70050 2421 ft 146 kts 171°
2026-04-29 23:25 24.57935 39.70271 2243 ft 146 kts 169°
2026-04-29 23:25 24.56941 39.70478 2127 ft 141 kts 171°
2026-04-29 23:25 24.56173 39.70630 2111 ft 71 kts 168°
2026-04-29 23:26 24.55883 39.70706 2102 ft 36 kts 168°
2026-04-29 23:26 24.55639 39.70757 2095 ft 35 kts 169°
2026-04-29 23:26 24.55430 39.70810 2093 ft 28 kts 161°
2026-04-29 23:26 24.55272 39.70912 2090 ft 26 kts 140°
2026-04-29 23:27 24.55217 39.71034 2091 ft 17 kts 77°
2026-04-29 23:27 24.55240 39.71151 2092 ft 13 kts 78°
2026-04-29 23:27 24.55235 39.71252 2093 ft 9 kts 82°
2026-04-29 23:27 24.55241 39.71282 2093 ft 4 kts 78°
2026-04-29 23:28 24.55246 39.71308 2093 ft 3 kts 78°
2026-04-29 23:28 24.55250 39.71330 2093 ft 1 kts 79°
2026-04-29 23:28 24.55251 39.71336 2094 ft 0 kts 79°